Station Historical Data
Daily Summary for November 16, 2017 Units:  Metric    English   Both
« Previous Day
Next Day »
Daily Weekly Monthly Yearly Custom
  High: Low: Average:
Temperature: 8.5 °C 1.7 °C 5.7 °C
Dew Point: 5.8 °C -3.1 °C 1.6 °C
Humidity: 86% 67% 75%
Wind Speed: 27.4km/h 1.6km/h 12.4km/h
Wind Gust: 41.8km/h - -
Wind- - West
Pressure: 1020.5 hPa 1004.6 hPa -
Precipitation: 0 mm    
Historical Graphs
 
 
Tabular Data for November 16, 2017
Time Temperature Dew Point Pressure Wind Wind Speed Wind Gust Humidity Rainfall Rate (Hourly)
00:04 7.6 °C 4.6 °C 1006.3 hPa SW 22.5 km/h 24.1 km/h 81% 0.25 mm
00:09 7.6 °C 4.6 °C 1006.3 hPa South 14.5 km/h 33.8 km/h 81% 0.25 mm
00:14 7.7 °C 4.6 °C 1006.3 hPa SSW 12.9 km/h 29 km/h 81% 0.25 mm
00:19 7.6 °C 4.6 °C 1006 hPa SW 16.1 km/h 30.6 km/h 81% 0.25 mm
00:24 7.7 °C 4.6 °C 1006 hPa SSW 14.5 km/h 35.4 km/h 81% 0 mm
00:29 7.7 °C 4.6 °C 1006 hPa SSW 14.5 km/h 35.4 km/h 81% 0 mm
00:34 7.7 °C 4.6 °C 1006 hPa SSW 14.5 km/h 35.4 km/h 81% 0 mm
00:39 7.7 °C 4.7 °C 1005.6 hPa SSW 14.5 km/h 32.2 km/h 81% 0 mm
00:44 7.7 °C 4.8 °C 1005.6 hPa SSW 12.9 km/h 32.2 km/h 82% 0 mm
00:49 7.7 °C 4.8 °C 1005.6 hPa South 8 km/h 24.1 km/h 82% 0 mm
00:54 7.6 °C 4.7 °C 1005.3 hPa SSE 14.5 km/h 32.2 km/h 82% 0 mm
01:04 7.7 °C 4.8 °C 1005.3 hPa SSE 6.4 km/h 30.6 km/h 82% 0 mm
01:09 7.7 °C 4.8 °C 1005.3 hPa SSW 6.4 km/h 27.4 km/h 82% 0 mm
01:19 7.7 °C 4.8 °C 1005.3 hPa SSW 11.3 km/h 20.9 km/h 82% 0 mm
01:24 7.7 °C 4.8 °C 1005 hPa SSW 11.3 km/h 27.4 km/h 82% 0 mm
01:29 7.8 °C 4.9 °C 1005 hPa SSW 11.3 km/h 27.4 km/h 82% 0 mm
01:34 7.8 °C 4.9 °C 1004.6 hPa SSW 9.7 km/h 25.7 km/h 82% 0 mm
01:39 7.9 °C 5 °C 1004.6 hPa SSW 11.3 km/h 33.8 km/h 82% 0 mm
01:44 7.9 °C 5.1 °C 1004.6 hPa SSW 12.9 km/h 33.8 km/h 82% 0.25 mm
01:49 7.9 °C 5.2 °C 1004.6 hPa SW 24.1 km/h 24.1 km/h 83% 0.25 mm
01:54 7.9 °C 5.2 °C 1005 hPa SSW 12.9 km/h 32.2 km/h 83% 0.25 mm
01:59 7.9 °C 5.2 °C 1005 hPa SSW 14.5 km/h 24.1 km/h 83% 0.25 mm
02:04 7.9 °C 5.4 °C 1005 hPa SW 16.1 km/h 29 km/h 84% 0.76 mm
02:09 7.9 °C 5.3 °C 1005.6 hPa West 17.7 km/h 27.4 km/h 84% 1.52 mm
02:14 7.8 °C 5.4 °C 1005.3 hPa SW 12.9 km/h 19.3 km/h 85% 2.29 mm
02:19 7.7 °C 5.3 °C 1005.3 hPa SW 9.7 km/h 29 km/h 85% 2.29 mm
02:24 7.8 °C 5.6 °C 1005.3 hPa SW 11.3 km/h 29 km/h 86% 2.29 mm
02:29 7.9 °C 5.7 °C 1005 hPa SW 12.9 km/h 27.4 km/h 86% 2.29 mm
02:34 7.9 °C 5.7 °C 1005.3 hPa SW 12.9 km/h 27.4 km/h 86% 2.29 mm
02:39 8.1 °C 5.8 °C 1005.3 hPa SW 16.1 km/h 37 km/h 86% 2.29 mm
02:44 8.2 °C 5.6 °C 1005.3 hPa SW 27.4 km/h 41.8 km/h 84% 2.03 mm
02:49 8.3 °C 5.4 °C 1005.3 hPa SW 9.7 km/h 38.6 km/h 82% 2.03 mm
02:54 8.4 °C 5.2 °C 1005.3 hPa WSW 17.7 km/h 38.6 km/h 80% 2.03 mm
02:59 8.4 °C 5 °C 1005.3 hPa West 11.3 km/h 33.8 km/h 79% 2.03 mm
03:04 8.5 °C 5.1 °C 1005.6 hPa SSW 17.7 km/h 25.7 km/h 79% 1.52 mm
03:09 8.4 °C 4.8 °C 1005.6 hPa WSW 22.5 km/h 27.4 km/h 78% 0.76 mm
03:14 8.4 °C 4.6 °C 1005.6 hPa West 25.7 km/h 27.4 km/h 77% 0 mm
03:19 8.4 °C 4.6 °C 1005.3 hPa West 14.5 km/h 35.4 km/h 77% 0 mm
03:24 8.3 °C 4.6 °C 1005.6 hPa WSW 17.7 km/h 35.4 km/h 77% 0 mm
03:29 8.3 °C 4.6 °C 1005.6 hPa WSW 14.5 km/h 33.8 km/h 77% 0 mm
03:34 8.3 °C 4.5 °C 1005.6 hPa WSW 16.1 km/h 30.6 km/h 77% 0 mm
03:39 8.2 °C 4.4 °C 1006 hPa WSW 17.7 km/h 30.6 km/h 77% 0 mm
03:44 8.2 °C 4.4 °C 1005.6 hPa West 14.5 km/h 30.6 km/h 77% 0 mm
03:49 8.2 °C 4.4 °C 1005.6 hPa WSW 16.1 km/h 32.2 km/h 77% 0 mm
03:54 8.1 °C 4.3 °C 1006 hPa West 19.3 km/h 27.4 km/h 77% 0 mm
03:59 7.9 °C 3.9 °C 1006 hPa West 14.5 km/h 35.4 km/h 76% 0 mm
04:04 7.9 °C 3.9 °C 1006 hPa WSW 8 km/h 29 km/h 76% 0 mm
04:14 7.7 °C 3.9 °C 1006.3 hPa West 8 km/h 29 km/h 77% 0 mm
04:19 7.6 °C 3.8 °C 1006.3 hPa West 12.9 km/h 29 km/h 77% 0 mm
04:24 7.6 °C 3.8 °C 1006.3 hPa West 12.9 km/h 25.7 km/h 77% 0 mm
04:29 7.5 °C 3.7 °C 1006.3 hPa West 11.3 km/h 25.7 km/h 77% 0 mm
04:34 7.4 °C 3.8 °C 1006.3 hPa West 9.7 km/h 29 km/h 78% 0 mm
04:39 7.3 °C 3.4 °C 1006.7 hPa West 11.3 km/h 29 km/h 76% 0 mm
04:44 7.3 °C 3.4 °C 1006.7 hPa WNW 16.1 km/h 32.2 km/h 76% 0 mm
04:49 7.3 °C 3.4 °C 1006.7 hPa SW 14.5 km/h 24.1 km/h 76% 0 mm
04:54 7.3 °C 3.1 °C 1006.7 hPa West 12.9 km/h 24.1 km/h 75% 0 mm
04:59 7.2 °C 3.1 °C 1006.3 hPa West 11.3 km/h 24.1 km/h 75% 0 mm
05:04 7.1 °C 3 °C 1006.3 hPa West 9.7 km/h 20.9 km/h 75% 0 mm
05:09 7 °C 3.1 °C 1006.3 hPa SW 11.3 km/h 24.1 km/h 76% 0 mm
05:14 7 °C 3.1 °C 1006.3 hPa West 16.1 km/h 19.3 km/h 76% 0 mm
05:19 7 °C 3.4 °C 1006.3 hPa WNW 19.3 km/h 25.7 km/h 78% 0.25 mm
05:24 7 °C 3.6 °C 1006.3 hPa West 11.3 km/h 25.7 km/h 79% 0.25 mm
05:29 6.9 °C 3.7 °C 1006.3 hPa West 11.3 km/h 25.7 km/h 80% 0.25 mm
05:34 6.8 °C 3.6 °C 1006.3 hPa WSW 9.7 km/h 19.3 km/h 80% 0.25 mm
05:39 6.7 °C 3.5 °C 1006.3 hPa WSW 9.7 km/h 24.1 km/h 80% 0.25 mm
05:44 6.8 °C 3.6 °C 1006.3 hPa West 9.7 km/h 27.4 km/h 80% 0.25 mm
05:49 6.8 °C 3.6 °C 1006.3 hPa WSW 6.4 km/h 20.9 km/h 80% 0.25 mm
05:54 6.8 °C 3.6 °C 1006 hPa West 11.3 km/h 22.5 km/h 80% 0.25 mm
05:59 6.8 °C 3.6 °C 1006 hPa WSW 6.4 km/h 22.5 km/h 80% 0.25 mm
06:04 6.8 °C 3.6 °C 1006 hPa SW 9.7 km/h 20.9 km/h 80% 0.25 mm
06:09 6.9 °C 3.7 °C 1006 hPa West 11.3 km/h 22.5 km/h 80% 0.25 mm
06:14 6.9 °C 3.6 °C 1006 hPa WSW 6.4 km/h 24.1 km/h 79% 0.25 mm
06:19 6.9 °C 3.6 °C 1006 hPa West 20.9 km/h 22.5 km/h 79% 0 mm
06:24 6.9 °C 3.4 °C 1006 hPa WSW 11.3 km/h 27.4 km/h 78% 0 mm
06:29 7 °C 3.1 °C 1006 hPa WSW 11.3 km/h 27.4 km/h 76% 0 mm
06:34 7.1 °C 2.8 °C 1006 hPa WSW 11.3 km/h 30.6 km/h 74% 0 mm
06:39 7.2 °C 2.7 °C 1006 hPa WSW 12.9 km/h 30.6 km/h 73% 0 mm
06:44 7.2 °C 2.5 °C 1006 hPa WSW 14.5 km/h 30.6 km/h 72% 0 mm
06:49 7.2 °C 2.3 °C 1006.3 hPa West 19.3 km/h 27.4 km/h 71% 0 mm
06:54 7.1 °C 1.9 °C 1006.3 hPa West 6.4 km/h 32.2 km/h 70% 0 mm
06:59 6.9 °C 2 °C 1006.3 hPa West 12.9 km/h 32.2 km/h 71% 0 mm
07:09 6.5 °C 1.8 °C 1006.3 hPa West 11.3 km/h 19.3 km/h 72% 0 mm
07:14 6.4 °C 1.9 °C 1006.7 hPa West 4.8 km/h 22.5 km/h 73% 0 mm
07:19 6.3 °C 1.8 °C 1006.7 hPa WSW 8 km/h 17.7 km/h 73% 0 mm
07:24 6.3 °C 1.8 °C 1006.7 hPa West 9.7 km/h 19.3 km/h 73% 0 mm
07:29 6.3 °C 1.8 °C 1006.7 hPa WNW 9.7 km/h 20.9 km/h 73% 0 mm
07:34 6.2 °C 1.7 °C 1007 hPa West 9.7 km/h 20.9 km/h 73% 0 mm
07:39 6.2 °C 1.7 °C 1007 hPa West 9.7 km/h 20.9 km/h 73% 0 mm
07:44 6.1 °C 1.6 °C 1007 hPa West 8 km/h 19.3 km/h 73% 0 mm
07:49 5.9 °C 1.7 °C 1007.3 hPa WSW 8 km/h 17.7 km/h 74% 0 mm
07:54 5.9 °C 1.6 °C 1007.3 hPa WSW 8 km/h 17.7 km/h 74% 0 mm
07:59 5.8 °C 1.6 °C 1007.3 hPa WNW 11.3 km/h 19.3 km/h 74% 0 mm
08:04 5.9 °C 1.8 °C 1007.3 hPa SSW 11.3 km/h 20.9 km/h 75% 0 mm
08:09 5.9 °C 1.8 °C 1007.3 hPa WSW 6.4 km/h 17.7 km/h 75% 0 mm
08:14 5.9 °C 1.8 °C 1007.7 hPa West 6.4 km/h 16.1 km/h 75% 0 mm
08:19 5.8 °C 1.7 °C 1007.3 hPa WSW 11.3 km/h 17.7 km/h 75% 0 mm
08:24 5.8 °C 1.7 °C 1007.7 hPa SW 4.8 km/h 20.9 km/h 75% 0 mm
08:29 5.8 °C 1.7 °C 1007.7 hPa WSW 4.8 km/h 19.3 km/h 75% 0 mm
08:34 5.8 °C 1.9 °C 1008 hPa WSW 8 km/h 19.3 km/h 76% 0 mm
08:39 5.8 °C 1.7 °C 1008 hPa WSW 9.7 km/h 27.4 km/h 75% 0 mm
08:49 5.6 °C 1.7 °C 1008 hPa West 11.3 km/h 33.8 km/h 76% 0 mm
08:54 5.6 °C 1.7 °C 1008 hPa West 9.7 km/h 20.9 km/h 76% 0 mm
08:59 5.6 °C 1.7 °C 1008 hPa West 9.7 km/h 19.3 km/h 76% 0 mm
09:04 5.8 °C 1.9 °C 1008 hPa West 14.5 km/h 22.5 km/h 76% 0 mm
09:09 5.8 °C 1.9 °C 1008 hPa WSW 8 km/h 20.9 km/h 76% 0 mm
09:14 6.1 °C 2.2 °C 1008 hPa SW 11.3 km/h 25.7 km/h 76% 0 mm
09:19 6.4 °C 2.1 °C 1008 hPa WNW 19.3 km/h 22.5 km/h 74% 0 mm
09:24 6.5 °C 2 °C 1008.4 hPa West 22.5 km/h 32.2 km/h 73% 0 mm
09:29 6.2 °C 1.7 °C 1008.4 hPa West 14.5 km/h 32.2 km/h 73% 0 mm
09:34 5.9 °C 1.4 °C 1008.4 hPa West 14.5 km/h 29 km/h 73% 0 mm
09:39 6 °C 1.7 °C 1008.4 hPa West 12.9 km/h 27.4 km/h 74% 0 mm
09:44 6.5 °C 2 °C 1008.4 hPa West 12.9 km/h 27.4 km/h 73% 0 mm
09:49 6.4 °C 1.9 °C 1008.4 hPa West 12.9 km/h 30.6 km/h 73% 0 mm
09:54 6.3 °C 1.8 °C 1008.4 hPa WSW 12.9 km/h 30.6 km/h 73% 0 mm
09:59 6.2 °C 1.7 °C 1008.7 hPa WSW 24.1 km/h 32.2 km/h 73% 0 mm
10:04 6 °C 1.5 °C 1008.7 hPa WSW 14.5 km/h 38.6 km/h 73% 0 mm
10:09 6 °C 1.7 °C 1008.7 hPa WSW 14.5 km/h 38.6 km/h 74% 0 mm
10:14 6.1 °C 1.8 °C 1008.7 hPa West 14.5 km/h 25.7 km/h 74% 0 mm
10:19 6.2 °C 1.7 °C 1008.7 hPa WSW 8 km/h 22.5 km/h 73% 0 mm
10:24 6.4 °C 1.9 °C 1008.7 hPa WSW 9.7 km/h 17.7 km/h 73% 0 mm
10:29 6.4 °C 1.9 °C 1008.7 hPa WSW 9.7 km/h 22.5 km/h 73% 0 mm
10:34 6.4 °C 1.7 °C 1009 hPa WSW 11.3 km/h 24.1 km/h 72% 0 mm
10:39 6.3 °C 1.8 °C 1009 hPa WSW 12.9 km/h 24.1 km/h 73% 0 mm
10:44 6.3 °C 1.7 °C 1009 hPa WSW 11.3 km/h 22.5 km/h 72% 0 mm
10:49 6.3 °C 1.8 °C 1009 hPa West 11.3 km/h 20.9 km/h 73% 0 mm
10:54 6.2 °C 1.6 °C 1009 hPa WSW 16.1 km/h 27.4 km/h 72% 0 mm
10:59 6.1 °C 1.6 °C 1009 hPa WSW 11.3 km/h 22.5 km/h 73% 0 mm
11:04 6 °C 1.5 °C 1009 hPa West 16.1 km/h 25.7 km/h 73% 0 mm
11:09 5.9 °C 1.4 °C 1009 hPa WSW 14.5 km/h 25.7 km/h 73% 0 mm
11:14 5.8 °C 1.6 °C 1009 hPa WSW 16.1 km/h 27.4 km/h 74% 0 mm
11:19 5.8 °C 1.6 °C 1009 hPa West 14.5 km/h 29 km/h 74% 0 mm
11:24 5.8 °C 1.6 °C 1009 hPa West 14.5 km/h 29 km/h 74% 0 mm
11:29 5.8 °C 1.6 °C 1009 hPa WSW 12.9 km/h 25.7 km/h 74% 0 mm
11:34 5.7 °C 1.4 °C 1009 hPa WNW 8 km/h 29 km/h 74% 0 mm
11:39 5.7 °C 1.4 °C 1009 hPa West 12.9 km/h 29 km/h 74% 0 mm
11:44 5.7 °C 1.4 °C 1009.4 hPa WSW 12.9 km/h 29 km/h 74% 0 mm
11:49 5.6 °C 1.5 °C 1009 hPa West 8 km/h 22.5 km/h 75% 0 mm
11:54 5.7 °C 1.6 °C 1009 hPa WNW 12.9 km/h 29 km/h 75% 0 mm
11:59 5.6 °C 1.5 °C 1009 hPa West 11.3 km/h 20.9 km/h 75% 0 mm
12:04 5.7 °C 1.6 °C 1009 hPa SW 12.9 km/h 25.7 km/h 75% 0 mm
12:09 5.7 °C 1.6 °C 1009 hPa West 11.3 km/h 25.7 km/h 75% 0 mm
12:14 5.7 °C 1.6 °C 1009.4 hPa WSW 12.9 km/h 29 km/h 75% 0 mm
12:19 5.7 °C 1.6 °C 1009.4 hPa WSW 14.5 km/h 33.8 km/h 75% 0 mm
12:24 5.7 °C 1.8 °C 1009.4 hPa West 12.9 km/h 33.8 km/h 76% 0 mm
12:29 5.7 °C 1.8 °C 1009.4 hPa West 17.7 km/h 27.4 km/h 76% 0 mm
12:34 5.7 °C 2 °C 1009.4 hPa WSW 12.9 km/h 16.1 km/h 77% 0 mm
12:39 5.7 °C 2 °C 1009.4 hPa West 11.3 km/h 24.1 km/h 77% 0 mm
12:44 5.8 °C 1.9 °C 1009.4 hPa West 14.5 km/h 38.6 km/h 76% 0 mm
12:49 5.8 °C 1.9 °C 1009.7 hPa West 14.5 km/h 38.6 km/h 76% 0 mm
12:54 5.8 °C 1.9 °C 1009.7 hPa West 14.5 km/h 33.8 km/h 76% 0 mm
12:59 5.8 °C 1.7 °C 1009.7 hPa West 19.3 km/h 29 km/h 75% 0 mm
13:04 5.8 °C 1.7 °C 1009.7 hPa West 19.3 km/h 37 km/h 75% 0 mm
13:09 5.9 °C 1.8 °C 1010 hPa West 9.7 km/h 24.1 km/h 75% 0 mm
13:14 5.9 °C 1.8 °C 1010 hPa West 12.9 km/h 32.2 km/h 75% 0 mm
13:19 5.9 °C 1.8 °C 1010 hPa West 14.5 km/h 32.2 km/h 75% 0 mm
13:24 5.9 °C 1.8 °C 1010 hPa West 14.5 km/h 33.8 km/h 75% 0 mm
13:29 5.9 °C 1.8 °C 1010 hPa WNW 19.3 km/h 30.6 km/h 75% 0 mm
13:34 5.8 °C 1.7 °C 1010 hPa West 12.9 km/h 30.6 km/h 75% 0 mm
13:39 5.8 °C 2.1 °C 1010.4 hPa West 12.9 km/h 25.7 km/h 77% 0 mm
13:44 5.6 °C 1.8 °C 1010.4 hPa West 12.9 km/h 25.7 km/h 77% 0 mm
13:54 5.5 °C 1.9 °C 1010.4 hPa West 8 km/h 27.4 km/h 78% 0 mm
13:59 5.5 °C 2.2 °C 1010.4 hPa WNW 12.9 km/h 20.9 km/h 79% 0 mm
14:04 5.6 °C 2.1 °C 1010.7 hPa WSW 9.7 km/h 27.4 km/h 78% 0 mm
14:14 5.7 °C 2.2 °C 1010.7 hPa West 12.9 km/h 25.7 km/h 78% 0 mm
14:19 5.7 °C 2.2 °C 1010.7 hPa West 11.3 km/h 25.7 km/h 78% 0 mm
14:24 5.7 °C 2 °C 1011.1 hPa West 12.9 km/h 27.4 km/h 77% 0 mm
14:29 5.7 °C 2 °C 1011.1 hPa West 17.7 km/h 25.7 km/h 77% 0 mm
14:34 5.8 °C 2.1 °C 1011.1 hPa WSW 11.3 km/h 20.9 km/h 77% 0 mm
14:39 5.8 °C 2.1 °C 1011.1 hPa West 14.5 km/h 22.5 km/h 77% 0 mm
14:44 5.9 °C 2.2 °C 1011.4 hPa West 19.3 km/h 24.1 km/h 77% 0 mm
14:49 5.9 °C 2 °C 1011.4 hPa WNW 19.3 km/h 35.4 km/h 76% 0 mm
14:54 5.9 °C 2.1 °C 1011.7 hPa West 11.3 km/h 25.7 km/h 76% 0 mm
14:59 5.9 °C 2.1 °C 1011.7 hPa NW 14.5 km/h 24.1 km/h 76% 0 mm
15:04 5.9 °C 2.1 °C 1011.7 hPa SW 20.9 km/h 27.4 km/h 76% 0 mm
15:09 5.9 °C 2.1 °C 1011.7 hPa West 16.1 km/h 27.4 km/h 76% 0 mm
15:19 5.9 °C 2.1 °C 1012.1 hPa WNW 11.3 km/h 25.7 km/h 76% 0 mm
15:24 5.9 °C 1.8 °C 1012.1 hPa West 14.5 km/h 25.7 km/h 75% 0 mm
15:29 6 °C 1.9 °C 1012.4 hPa WNW 14.5 km/h 25.7 km/h 75% 0 mm
15:34 6 °C 1.5 °C 1012.4 hPa WNW 12.9 km/h 27.4 km/h 73% 0 mm
15:39 5.9 °C 1.4 °C 1012.8 hPa WNW 17.7 km/h 24.1 km/h 73% 0 mm
15:49 5.9 °C 1.3 °C 1012.8 hPa WNW 11.3 km/h 22.5 km/h 72% 0 mm
15:54 5.9 °C 1.3 °C 1012.8 hPa WSW 14.5 km/h 33.8 km/h 72% 0 mm
15:59 6 °C 1.3 °C 1012.8 hPa NNW 16.1 km/h 20.9 km/h 72% 0 mm
16:04 6 °C 1.3 °C 1013.1 hPa WNW 19.3 km/h 19.3 km/h 72% 0 mm
16:09 6 °C 1.5 °C 1013.1 hPa WNW 17.7 km/h 20.9 km/h 73% 0 mm
16:14 5.9 °C 1.3 °C 1013.1 hPa WNW 9.7 km/h 32.2 km/h 72% 0 mm
16:19 5.9 °C 1.2 °C 1013.1 hPa WNW 11.3 km/h 32.2 km/h 72% 0 mm
16:24 5.8 °C 1.2 °C 1013.1 hPa WNW 12.9 km/h 29 km/h 72% 0 mm
16:29 5.8 °C 1.2 °C 1013.4 hPa WNW 12.9 km/h 29 km/h 72% 0 mm
16:34 5.6 °C 0.9 °C 1013.4 hPa WNW 11.3 km/h 35.4 km/h 72% 0 mm
16:39 5.3 °C 1 °C 1013.8 hPa WNW 14.5 km/h 29 km/h 74% 0 mm
16:44 5.1 °C 1.2 °C 1013.8 hPa WNW 12.9 km/h 29 km/h 76% 0 mm
16:49 4.8 °C 1.3 °C 1013.8 hPa WNW 12.9 km/h 17.7 km/h 78% 0 mm
16:54 4.8 °C 1.3 °C 1014.1 hPa West 14.5 km/h 30.6 km/h 78% 0 mm
16:59 4.8 °C 1.1 °C 1014.1 hPa West 8 km/h 24.1 km/h 77% 0 mm
17:04 4.8 °C 0.9 °C 1014.1 hPa WNW 9.7 km/h 24.1 km/h 76% 0 mm
17:09 4.8 °C 0.9 °C 1014.4 hPa West 6.4 km/h 20.9 km/h 76% 0 mm
17:14 4.8 °C 0.8 °C 1014.4 hPa WNW 11.3 km/h 22.5 km/h 75% 0 mm
17:19 4.8 °C 0.6 °C 1014.4 hPa WNW 12.9 km/h 22.5 km/h 74% 0 mm
17:24 4.8 °C 0.2 °C 1014.8 hPa WNW 12.9 km/h 30.6 km/h 72% 0 mm
17:29 4.8 °C 0.2 °C 1014.8 hPa West 14.5 km/h 29 km/h 72% 0 mm
17:34 4.8 °C 0 °C 1014.8 hPa WNW 4.8 km/h 25.7 km/h 71% 0 mm
17:39 4.8 °C -0.2 °C 1015.1 hPa NW 17.7 km/h 27.4 km/h 70% 0 mm
17:44 4.7 °C -0.1 °C 1015.1 hPa WNW 14.5 km/h 27.4 km/h 71% 0 mm
17:49 4.7 °C -0.2 °C 1015.1 hPa WNW 16.1 km/h 30.6 km/h 71% 0 mm
17:54 4.6 °C -0.1 °C 1015.5 hPa WNW 14.5 km/h 30.6 km/h 72% 0 mm
17:59 4.5 °C 0.1 °C 1015.5 hPa WNW 14.5 km/h 29 km/h 73% 0 mm
18:04 4.4 °C 0 °C 1015.5 hPa West 17.7 km/h 29 km/h 73% 0 mm
18:09 4.4 °C 0 °C 1015.8 hPa WNW 14.5 km/h 29 km/h 73% 0 mm
18:14 4.4 °C -0.1 °C 1015.8 hPa NW 11.3 km/h 29 km/h 73% 0 mm
18:19 4.3 °C -0.3 °C 1016.1 hPa NW 9.7 km/h 25.7 km/h 72% 0 mm
18:24 4.3 °C -0.3 °C 1016.1 hPa NW 11.3 km/h 27.4 km/h 72% 0 mm
18:29 4.3 °C -0.3 °C 1016.1 hPa WNW 11.3 km/h 20.9 km/h 72% 0 mm
18:34 4.2 °C -0.2 °C 1016.5 hPa NW 12.9 km/h 27.4 km/h 73% 0 mm
18:39 4.2 °C -0.2 °C 1016.5 hPa WNW 12.9 km/h 32.2 km/h 73% 0 mm
18:44 4.2 °C -0.1 °C 1016.5 hPa WNW 12.9 km/h 32.2 km/h 74% 0 mm
18:49 4.1 °C -0.1 °C 1016.5 hPa WNW 11.3 km/h 24.1 km/h 74% 0 mm
18:54 4.1 °C -0.2 °C 1016.8 hPa WNW 11.3 km/h 30.6 km/h 74% 0 mm
19:09 3.9 °C -0.5 °C 1017.2 hPa WSW 8 km/h 27.4 km/h 73% 0 mm
19:14 3.8 °C -0.6 °C 1017.2 hPa West 9.7 km/h 22.5 km/h 73% 0 mm
19:19 3.8 °C -0.4 °C 1017.2 hPa WNW 9.7 km/h 24.1 km/h 74% 0 mm
19:24 3.8 °C -0.4 °C 1017.5 hPa WNW 11.3 km/h 24.1 km/h 74% 0 mm
19:29 3.7 °C -0.5 °C 1017.5 hPa WSW 4.8 km/h 19.3 km/h 74% 0 mm
19:39 3.7 °C -0.9 °C 1017.5 hPa WNW 11.3 km/h 29 km/h 72% 0 mm
19:44 3.7 °C -1.1 °C 1017.5 hPa WNW 12.9 km/h 29 km/h 71% 0 mm
19:49 3.7 °C -1.1 °C 1017.5 hPa WNW 11.3 km/h 25.7 km/h 71% 0 mm
19:54 3.6 °C -0.9 °C 1017.8 hPa WNW 14.5 km/h 20.9 km/h 72% 0 mm
19:59 3.6 °C -1.2 °C 1017.8 hPa NW 4.8 km/h 22.5 km/h 71% 0 mm
20:04 3.5 °C -1.7 °C 1017.8 hPa WNW 12.9 km/h 24.1 km/h 69% 0 mm
20:09 3.4 °C -1.9 °C 1017.8 hPa WNW 12.9 km/h 24.1 km/h 68% 0 mm
20:14 3.4 °C -2.2 °C 1018.2 hPa WNW 12.9 km/h 25.7 km/h 67% 0 mm
20:24 3.3 °C -2.2 °C 1018.2 hPa WNW 12.9 km/h 20.9 km/h 67% 0 mm
20:29 3.3 °C -2.3 °C 1018.2 hPa West 24.1 km/h 25.7 km/h 67% 0 mm
20:34 3.2 °C -2.4 °C 1018.2 hPa West 11.3 km/h 24.1 km/h 67% 0 mm
20:39 3.1 °C -2.2 °C 1018.5 hPa WSW 11.3 km/h 22.5 km/h 68% 0 mm
20:44 3.1 °C -2.3 °C 1018.5 hPa WSW 11.3 km/h 20.9 km/h 68% 0 mm
20:49 3 °C -2.3 °C 1018.5 hPa WNW 12.9 km/h 27.4 km/h 68% 0 mm
20:54 3 °C -2.3 °C 1018.5 hPa WNW 11.3 km/h 27.4 km/h 68% 0 mm
20:59 2.9 °C -2.7 °C 1018.5 hPa NW 9.7 km/h 24.1 km/h 67% 0 mm
21:04 2.8 °C -2.7 °C 1018.8 hPa WNW 11.3 km/h 24.1 km/h 67% 0 mm
21:09 2.8 °C -2.7 °C 1018.8 hPa WNW 11.3 km/h 22.5 km/h 67% 0 mm
21:19 2.7 °C -2.8 °C 1018.8 hPa NNW 11.3 km/h 29 km/h 67% 0 mm
21:24 2.7 °C -2.6 °C 1019.2 hPa NW 12.9 km/h 29 km/h 68% 0 mm
21:29 2.7 °C -2.7 °C 1019.2 hPa NW 4.8 km/h 12.9 km/h 68% 0 mm
21:34 2.6 °C -2.7 °C 1019.2 hPa WNW 11.3 km/h 24.1 km/h 68% 0 mm
21:39 2.6 °C -2.6 °C 1019.2 hPa WNW 6.4 km/h 24.1 km/h 69% 0 mm
21:44 2.5 °C -2.6 °C 1019.2 hPa WNW 14.5 km/h 17.7 km/h 69% 0 mm
21:49 2.5 °C -2.6 °C 1019.2 hPa West 6.4 km/h 19.3 km/h 69% 0 mm
21:54 2.5 °C -2.6 °C 1019.5 hPa WNW 9.7 km/h 22.5 km/h 69% 0 mm
21:59 2.4 °C -2.7 °C 1019.5 hPa NW 9.7 km/h 22.5 km/h 69% 0 mm
22:04 2.4 °C -2.9 °C 1019.5 hPa WNW 11.3 km/h 25.7 km/h 68% 0 mm
22:09 2.4 °C -2.9 °C 1019.9 hPa West 22.5 km/h 27.4 km/h 68% 0 mm
22:24 2.3 °C -2.8 °C 1019.9 hPa NW 8 km/h 22.5 km/h 69% 0 mm
22:29 2.3 °C -2.8 °C 1019.9 hPa NW 6.4 km/h 24.1 km/h 69% 0 mm
22:34 2.3 °C -2.8 °C 1019.9 hPa NW 9.7 km/h 24.1 km/h 69% 0 mm
22:39 2.3 °C -2.6 °C 1019.9 hPa NW 9.7 km/h 24.1 km/h 70% 0 mm
22:44 2.2 °C -2.7 °C 1019.9 hPa NW 8 km/h 17.7 km/h 70% 0 mm
22:49 2.2 °C -2.6 °C 1019.9 hPa NW 8 km/h 17.7 km/h 71% 0 mm
22:54 2.2 °C -2.5 °C 1020.2 hPa NW 4.8 km/h 16.1 km/h 71% 0 mm
22:59 2.2 °C -2.6 °C 1020.2 hPa West 4.8 km/h 16.1 km/h 71% 0 mm
23:04 2.2 °C -2.6 °C 1020.2 hPa WNW 4.8 km/h 16.1 km/h 71% 0 mm
23:09 2.1 °C -2.4 °C 1020.2 hPa WNW 6.4 km/h 16.1 km/h 72% 0 mm
23:14 2.1 °C -2.2 °C 1020.2 hPa NW 14.5 km/h 14.5 km/h 73% 0 mm
23:19 2.1 °C -2.3 °C 1020.2 hPa NW 8 km/h 17.7 km/h 73% 0 mm
23:24 2 °C -2.2 °C 1020.5 hPa NW 8 km/h 20.9 km/h 74% 0 mm
23:29 1.9 °C -2.4 °C 1020.2 hPa NW 9.7 km/h 22.5 km/h 73% 0 mm
23:34 1.8 °C -2.7 °C 1020.5 hPa NW 9.7 km/h 22.5 km/h 72% 0 mm
23:39 1.7 °C -2.8 °C 1020.5 hPa West 8 km/h 17.7 km/h 72% 0 mm
23:44 1.7 °C -3.1 °C 1020.5 hPa NW 8 km/h 19.3 km/h 71% 0 mm
23:49 1.7 °C -3.1 °C 1020.5 hPa NW 4.8 km/h 20.9 km/h 71% 0 mm
23:54 1.7 °C -3.1 °C 1020.5 hPa NNW 1.6 km/h 19.3 km/h 71% 0 mm
23:59 1.7 °C -2.8 °C 1020.5 hPa NW 19.3 km/h 22.5 km/h 72% 0 mm
Buffalo, New York, USA
Compliments of Weather Underground - 2.25 mb